Regional Weather Roundup
Issued by NWS

Home | Current Version | Previous Version | Text Only | Print | Product List | Glossary Off
Versions: 1 2 3 4 5 6 7 8 9 10 11 12 13 14 15 16 17 18 19 20 21 22 23 24 25 26 27 28 29 30 31 32 33 34 35 36 37 38 39 40 41 42 43 44 45 46 47 48 49 50

000
ASUS43 KIND 301509
RWRIN

WEATHER ROUNDUP FOR INDIANA
NATIONAL WEATHER SERVICE INDIANAPOLIS IN
1100 AM EDT THU OCT 30 2014

NOTE: "FAIR" INDICATES FEW OR NO CLOUDS BELOW 12,000 FEET WITH NO
SIGNIFICANT WEATHER AND/OR OBSTRUCTIONS TO VISIBILITY.

* - STATION DOES NOT REPORT WEATHER SUCH AS PRECIPITATION OR FOG.

+ - STATION NOT QUALITY CONTROLLED BY THE NATIONAL WEATHER SERVICE.
    USE DATA WITH CAUTION...ESPECIALLY DEWPOINT AND RELATIVE
    HUMIDITY OBSERVATIONS.

INZ001>003-010>013-019-020-301600-
NORTHWEST INDIANA

CITY           SKY/WX    TMP DP  RH WIND       PRES   REMARKS
GARY /AIRPORT/ CLOUDY    45  34  65 SW7       30.15F
KNOX *+        PTSUNNY   44  33  65 SW3       30.15F
LA PORTE +     PTSUNNY   48  35  61 SW8       30.15F
MICHIGAN CITY+ PTSUNNY   46  32  57 SW9       30.15S
MONTICELLO +   MOSUNNY   44  36  72 SW5       30.16F
RENSSELAER +   PTSUNNY   45  37  76 SW5       30.16F
VALPARAISO     MOSUNNY   45  34  65 SW8       30.15F

$$

LMZ046-743>745-301600-
SOUTHERN LAKE MICHIGAN

STATION/POSITION TIME  TEMP WIND        PRES
                       AIR  DIR/SP/G
                 (UTC) (F)  (DEG/KT/KT) (MB)
MICHIGAN CITY    1500   46  190/ 11/ 13   N/A

$$

INZ004-005-014>016-021>024-301600-
NORTH CENTRAL INDIANA

CITY           SKY/WX    TMP DP  RH WIND       PRES   REMARKS
ELKHART        CLOUDY    46  34  61 W7        30.15F
GOSHEN         CLOUDY    45  35  68 SW9       30.15S
LOGANSPORT +   CLOUDY    43  34  70 CALM      30.17S
PERU/GRISSOM   CLOUDY    46  38  75 W1        30.16S
ROCHESTER +    CLOUDY    46  36  66 SW7       30.16F
SOUTH BEND     CLOUDY    47  34  60 SW9       30.15F
WARSAW +       CLOUDY    45  36  70 W6        30.15F

$$

INZ006>009-017-018-025>027-301600-
NORTHEAST INDIANA

CITY           SKY/WX    TMP DP  RH WIND       PRES   REMARKS
ANGOLA *+      CLOUDY    45  37  76 CALM      30.14S
AUBURN +       CLOUDY    45  36  70 SW3       30.16S
FORT WAYNE     CLOUDY    45  37  73 SW3       30.16F
HUNTINGTON +   CLOUDY   N/A N/A N/A W3        30.16S

$$

INZ028-029-035-036-043>045-051>053-301600-
WEST CENTRAL INDIANA

CITY           SKY/WX    TMP DP  RH WIND       PRES   REMARKS
CRAWFORDSVL +  SUNNY     45  34  65 SE5       30.16
GREENCASTLE +  SUNNY     45  34  65 CALM      30.17F
LAFAYETTE      MOSUNNY   44  36  73 CALM      30.17S
TERRE HAUTE    SUNNY     46  36  68 S3        30.18S

$$

INZ030>032-037>040-046>048-054>057-064-065-301600-
CENTRAL INDIANA

CITY           SKY/WX    TMP DP  RH WIND       PRES   REMARKS
ANDERSON       MOSUNNY   46  32  57 CALM      30.17F
CP ATTERBURY + SUNNY     46  36  66 CALM      30.18S
COLUMBUS       SUNNY     45  37  76 CALM      30.17F
FRANKFORT +    SUNNY     47  36  63 CALM      30.18R
INDIANAPOLIS   MOSUNNY   46  34  62 CALM      30.17S
-EAGLE CREEK   SUNNY     48  34  58 CALM      30.16F
KOKOMO *+      CLOUDY    46  32  57 CALM      30.17S
MARION +       CLOUDY    45  35  68 W3        30.17S
MT COMFORT *+  SUNNY     48  28  46 CALM      30.17S
SHELBYVILLE    SUNNY     49  35  58 SE3       30.16F
ZIONSVILLE +   SUNNY     48  32  54 CALM      30.17S

$$

INZ033-034-041-042-049-050-058-059-301600-
EAST CENTRAL INDIANA

CITY           SKY/WX    TMP DP  RH WIND       PRES   REMARKS
MUNCIE         CLOUDY    46  35  65 N3        30.16F

$$

INZ060-061-067>069-081>083-085>088-301600-
SOUTHWEST INDIANA

CITY           SKY/WX    TMP DP  RH WIND       PRES   REMARKS
EVANSVILLE     SUNNY     48  38  68 CALM      30.19S
HUNTINGBURG *+ SUNNY     46  37  71 SE6       30.18F
WASHINGTON +   SUNNY     47  38  72 CALM      30.18F

$$

INZ062-063-066-070>080-084-089>092-301600-
SOUTH CENTRAL AND SOUTHEAST INDIANA

CITY           SKY/WX    TMP DP  RH WIND       PRES   REMARKS
BEDFORD +      SUNNY     48  32  53 NE5       30.18
BLOOMINGTON    SUNNY     47  34  60 E5        30.17F
NORTH VERNON + SUNNY     48  36  61 CALM      30.18F

$$




USA.gov is the U.S. government's official web portal to all federal, state and local government web resources and services.